"read_dt","SO2 (ppb)","flags","PMT voltage (V)","lamp voltage (V)","lamp intensity (Hz)","internal temp (C)","react chamber temp (C)","sample flow (l/min)","pres (mmHg)","SO2 bkg (ppb)","SO2 coefficient"
2013-08-25 00:00:00,8580E-5,5C000000,-0724,0939,11093,027.3,045.3,0.393,736.7,01.18,0.508
2013-08-25 00:01:00,9927E-5,5C000000,-0724,0938,11244,027.2,045.3,0.393,736.7,01.18,0.508
2013-08-25 00:02:00,1248E-4,5C000000,-0724,0939,11186,027.2,045.3,0.394,736.7,01.18,0.508
2013-08-25 00:03:00,9967E-5,5C000000,-0724,0940,11239,027.2,045.3,0.394,736.6,01.18,0.508
2013-08-25 00:04:00,2265E-4,5C000000,-0724,0939,11098,027.2,045.3,0.393,736.6,01.18,0.508
2013-08-25 00:05:00,2088E-4,5C000000,-0724,0938,11185,027.2,045.3,0.393,736.6,01.18,0.508
2013-08-25 00:06:00,1478E-4,5C000000,-0724,0938,11108,027.2,045.3,0.394,736.5,01.18,0.508
2013-08-25 00:07:00,1498E-4,5C000000,-0724,0939,11199,027.2,045.3,0.394,736.6,01.18,0.508
2013-08-25 00:08:00,1008E-4,5C000000,-0724,0939,11059,027.2,045.3,0.393,736.6,01.18,0.508
2013-08-25 00:09:00,1873E-4,5C000000,-0724,0938,11002,027.2,045.3,0.393,736.6,01.18,0.508
2013-08-25 00:10:00,1251E-4,5C000000,-0724,0938,10885,027.2,045.3,0.394,736.6,01.18,0.508
2013-08-25 00:11:00,9492E-5,5C000000,-0724,0938,11101,027.2,045.3,0.394,736.6,01.18,0.508
2013-08-25 00:12:00,1668E-4,5C000000,-0724,0939,11121,027.2,045.3,0.393,736.6,01.18,0.508
2013-08-25 00:13:00,1610E-4,5C000000,-0724,0939,11142,027.2,045.3,0.393,736.6,01.18,0.508
2013-08-25 00:14:00,1292E-4,5C000000,-0724,0939,11186,027.2,045.3,0.394,736.6,01.18,0.508
2013-08-25 00:15:00,1164E-4,5C000000,-0724,0938,11342,027.2,045.3,0.394,736.6,01.18,0.508
2013-08-25 00:16:00,1509E-4,5C000000,-0724,0937,11185,027.2,045.3,0.393,736.7,01.18,0.508
2013-08-25 00:17:00,1140E-4,5C000000,-0724,0937,10914,027.2,045.3,0.393,736.6,01.18,0.508
2013-08-25 00:18:00,1627E-4,5C000000,-0724,0939,11113,027.2,045.3,0.394,736.6,01.18,0.508
2013-08-25 00:19:00,1668E-4,5C000000,-0724,0939,11083,027.2,045.3,0.394,736.6,01.18,0.508
2013-08-25 00:20:00,1389E-4,5C000000,-0724,0939,11239,027.2,045.3,0.393,736.6,01.18,0.508
2013-08-25 00:21:00,7083E-5,5C000000,-0724,0939,11230,027.1,045.3,0.393,736.6,01.18,0.508
2013-08-25 00:22:00,1891E-4,5C000000,-0724,0936,10929,027.2,045.3,0.394,736.7,01.18,0.508
2013-08-25 00:23:00,2509E-4,5C000000,-0724,0938,11204,027.1,045.3,0.394,736.6,01.18,0.508
2013-08-25 00:24:00,1242E-4,5C000000,-0724,0939,11234,027.2,045.3,0.393,736.6,01.18,0.508
2013-08-25 00:25:00,1244E-4,5C000000,-0724,0938,11235,027.1,045.3,0.394,736.6,01.18,0.508
2013-08-25 00:26:00,2087E-4,5C000000,-0724,0938,10977,027.1,045.3,0.394,736.6,01.18,0.508
2013-08-25 00:27:00,1606E-4,5C000000,-0724,0938,11109,027.2,045.3,0.394,736.7,01.18,0.508
2013-08-25 00:28:00,1053E-4,5C000000,-0724,0939,11252,027.1,045.3,0.393,736.6,01.18,0.508
2013-08-25 00:29:00,1456E-4,5C000000,-0724,0938,11100,027.1,045.3,0.394,736.6,01.18,0.508
2013-08-25 00:30:00,2489E-4,5C000000,-0724,0938,11210,027.1,045.3,0.394,736.6,01.18,0.508
2013-08-25 00:31:00,1999E-4,5C000000,-0724,0938,11224,027.2,045.3,0.393,736.7,01.18,0.508
2013-08-25 00:32:00,1199E-4,5C000000,-0724,0938,11294,027.2,045.3,0.393,736.6,01.18,0.508
2013-08-25 00:33:00,2105E-4,5C000000,-0724,0938,11156,027.2,045.3,0.394,736.6,01.18,0.508
2013-08-25 00:34:00,1811E-4,5C000000,-0724,0937,11062,027.1,045.3,0.394,736.6,01.18,0.508
2013-08-25 00:35:00,1394E-4,5C000000,-0724,0938,11242,027.2,045.3,0.393,736.7,01.18,0.508
2013-08-25 00:36:00,1457E-4,5C000000,-0724,0937,11103,027.2,045.3,0.393,736.7,01.18,0.508
2013-08-25 00:37:00,4133E-5,5C000000,-0724,0936,11134,027.1,045.3,0.394,736.7,01.18,0.508
2013-08-25 00:38:00,1192E-4,5C000000,-0724,0938,11051,027.1,045.3,0.394,736.6,01.18,0.508
2013-08-25 00:39:00,1674E-4,5C000000,-0724,0937,11145,027.1,045.3,0.393,736.5,01.18,0.508
2013-08-25 00:40:00,1520E-4,5C000000,-0724,0936,10880,027.1,045.3,0.394,736.6,01.18,0.508
2013-08-25 00:41:00,1287E-4,5C000000,-0724,0938,11069,027.1,045.3,0.394,736.7,01.18,0.508
2013-08-25 00:42:00,1695E-4,5C000000,-0724,0936,11250,027.1,045.3,0.393,736.7,01.18,0.508
2013-08-25 00:43:00,1421E-4,5C000000,-0724,0937,11072,027.1,045.3,0.393,736.6,01.18,0.508
2013-08-25 00:44:00,1706E-4,5C000000,-0724,0935,11025,027.2,045.3,0.394,736.7,01.18,0.508
2013-08-25 00:45:00,1862E-4,5C000000,-0724,0937,11131,027.2,045.3,0.394,736.7,01.18,0.508
2013-08-25 00:46:00,1467E-4,5C000000,-0724,0939,11050,027.1,045.3,0.393,736.6,01.18,0.508
2013-08-25 00:47:00,1623E-4,5C000000,-0724,0938,10898,027.2,045.3,0.394,736.6,01.18,0.508
2013-08-25 00:48:00,9667E-5,5C000000,-0724,0937,11122,027.1,045.3,0.394,736.6,01.18,0.508
2013-08-25 00:49:00,2091E-4,5C000000,-0724,0939,11115,027.2,045.3,0.393,736.6,01.18,0.508
2013-08-25 00:50:00,1497E-4,5C000000,-0724,0939,11206,027.2,045.3,0.393,736.6,01.18,0.508
2013-08-25 00:51:00,9389E-5,5C000000,-0724,0938,11083,027.2,045.3,0.394,736.6,01.18,0.508
2013-08-25 00:52:00,1014E-4,5C000000,-0724,0939,11312,027.2,045.3,0.394,736.7,01.18,0.508
2013-08-25 00:53:00,1412E-4,5C000000,-0724,0938,11147,027.2,045.3,0.393,736.6,01.18,0.508
2013-08-25 00:54:00,1047E-4,5C000000,-0724,0939,11120,027.2,045.3,0.394,736.6,01.18,0.508
2013-08-25 00:55:00,9317E-5,5C000000,-0724,0939,11128,027.2,045.3,0.394,736.6,01.18,0.508
2013-08-25 00:56:00,1363E-4,5C000000,-0724,0938,11255,027.2,045.3,0.393,736.6,01.18,0.508
2013-08-25 00:57:00,1555E-4,5C000000,-0724,0938,11103,027.1,045.3,0.393,736.6,01.18,0.508
2013-08-25 00:58:00,1422E-4,5C000000,-0724,0938,11252,027.2,045.3,0.394,736.6,01.18,0.508
2013-08-25 00:59:00,9798E-5,5C000000,-0724,0938,11168,027.2,045.3,0.394,736.6,01.18,0.508
2013-08-25 01:00:00,1667E-4,5C000000,-0724,0938,11142,027.2,045.3,0.393,736.6,01.18,0.508
2013-08-25 01:01:00,1031E-4,5C000000,-0724,0938,11108,027.2,045.3,0.393,736.6,01.18,0.508
2013-08-25 01:02:00,1226E-4,5C000000,-0724,0937,11221,027.2,045.3,0.394,736.6,01.18,0.508
2013-08-25 01:03:00,6976E-5,5C000000,-0724,0938,11241,027.2,045.3,0.393,736.6,01.18,0.508
2013-08-25 01:04:00,8509E-5,5C000000,-0724,0937,11245,027.2,045.3,0.393,736.5,01.18,0.508
2013-08-25 01:05:00,1755E-4,5C000000,-0724,0937,11230,027.2,045.3,0.394,736.5,01.18,0.508
2013-08-25 01:06:00,1616E-4,5C000000,-0724,0937,11121,027.2,045.3,0.394,736.5,01.18,0.508
2013-08-25 01:07:00,9610E-5,5C000000,-0724,0937,11279,027.2,045.3,0.393,736.5,01.18,0.508
2013-08-25 01:08:00,1042E-4,5C000000,-0724,0937,11093,027.2,045.3,0.393,736.5,01.18,0.508
2013-08-25 01:09:00,1174E-4,5C000000,-0724,0938,11171,027.2,045.3,0.394,736.6,01.18,0.508
2013-08-25 01:10:00,1296E-4,5C000000,-0724,0937,11233,027.2,045.3,0.394,736.5,01.18,0.508
2013-08-25 01:11:00,1158E-4,5C000000,-0724,0939,11221,027.3,045.3,0.393,736.5,01.18,0.508
2013-08-25 01:12:00,9725E-5,5C000000,-0724,0938,11305,027.3,045.3,0.393,736.5,01.18,0.508
2013-08-25 01:13:00,1355E-4,5C000000,-0724,0936,11147,027.3,045.3,0.394,736.5,01.18,0.508
2013-08-25 01:14:00,9640E-5,5C000000,-0724,0938,11131,027.3,045.3,0.393,736.5,01.18,0.508
2013-08-25 01:15:00,1705E-4,5C000000,-0724,0937,11205,027.3,045.3,0.393,736.5,01.18,0.508
2013-08-25 01:16:00,2672E-4,5C000000,-0724,0937,11172,027.3,045.3,0.393,736.5,01.18,0.508
2013-08-25 01:17:00,7613E-5,5C000000,-0724,0938,11216,027.3,045.3,0.394,736.4,01.18,0.508
2013-08-25 01:18:00,2192E-4,5C000000,-0724,0939,11082,027.3,045.3,0.393,736.5,01.18,0.508
2013-08-25 01:19:00,1794E-4,5C000000,-0724,0937,11116,027.3,045.3,0.393,736.5,01.18,0.508
2013-08-25 01:20:00,1135E-4,5C000000,-0724,0939,11054,027.4,045.3,0.393,736.4,01.18,0.508
2013-08-25 01:21:00,5320E-5,5C000000,-0724,0938,11355,027.4,045.3,0.393,736.5,01.18,0.508
2013-08-25 01:22:00,7776E-5,5C000000,-0724,0938,10993,027.4,045.3,0.393,736.4,01.18,0.508
2013-08-25 01:23:00,2090E-4,5C000000,-0724,0939,11179,027.4,045.3,0.393,736.5,01.18,0.508
2013-08-25 01:24:00,1812E-4,5C000000,-0724,0938,11116,027.4,045.3,0.394,736.4,01.18,0.508
2013-08-25 01:25:00,7555E-5,5C000000,-0724,0938,11055,027.4,045.4,0.393,736.4,01.18,0.508
2013-08-25 01:26:00,1634E-4,5C000000,-0724,0937,11113,027.4,045.3,0.393,736.4,01.18,0.508
2013-08-25 01:27:00,1897E-4,5C000000,-0724,0939,11039,027.5,045.3,0.393,736.4,01.18,0.508
2013-08-25 01:28:00,1493E-4,5C000000,-0724,0939,11179,027.5,045.3,0.393,736.4,01.18,0.508
2013-08-25 01:29:00,9251E-5,5C000000,-0724,0938,11187,027.5,045.3,0.393,736.4,01.18,0.508
2013-08-25 01:30:00,1743E-4,5C000000,-0724,0940,11057,027.5,045.3,0.393,736.4,01.18,0.508
2013-08-25 01:31:00,1812E-4,5C000000,-0724,0939,11201,027.5,045.3,0.393,736.5,01.18,0.508
2013-08-25 01:32:00,2196E-4,5C000000,-0724,0938,11156,027.5,045.3,0.393,736.4,01.18,0.508
2013-08-25 01:33:00,7853E-5,5C000000,-0724,0939,11168,027.5,045.3,0.393,736.5,01.18,0.508
2013-08-25 01:34:00,1719E-4,5C000000,-0724,0938,11214,027.5,045.4,0.393,736.4,01.18,0.508
2013-08-25 01:35:00,1334E-4,5C000000,-0724,0938,11195,027.5,045.3,0.393,736.4,01.18,0.508
2013-08-25 01:36:00,1272E-4,5C000000,-0724,0939,11101,027.6,045.3,0.393,736.5,01.18,0.508
2013-08-25 01:37:00,1639E-4,5C000000,-0724,0938,11164,027.6,045.3,0.393,736.4,01.18,0.508
2013-08-25 01:38:00,2260E-4,5C000000,-0724,0939,11183,027.6,045.3,0.393,736.4,01.18,0.508
2013-08-25 01:39:00,1838E-4,5C000000,-0724,0939,11129,027.6,045.3,0.393,736.4,01.18,0.508
2013-08-25 01:40:00,1538E-4,5C000000,-0724,0939,10982,027.6,045.3,0.392,736.5,01.18,0.508
2013-08-25 01:41:00,7896E-5,5C000000,-0724,0940,11330,027.6,045.3,0.393,736.5,01.18,0.508
2013-08-25 01:42:00,1935E-4,5C000000,-0724,0939,11156,027.6,045.3,0.393,736.5,01.18,0.508
2013-08-25 01:43:00,1175E-4,5C000000,-0724,0939,11161,027.6,045.3,0.393,736.5,01.18,0.508
2013-08-25 01:44:00,1957E-4,5C000000,-0724,0940,11077,027.7,045.3,0.393,736.5,01.18,0.508
2013-08-25 01:45:00,9754E-5,5C000000,-0724,0940,11122,027.7,045.3,0.393,736.4,01.18,0.508
2013-08-25 01:46:00,1664E-4,5C000000,-0724,0938,11068,027.7,045.3,0.393,736.4,01.18,0.508
2013-08-25 01:47:00,2000E-4,5C000000,-0724,0938,11029,027.7,045.4,0.392,736.4,01.18,0.508
2013-08-25 01:48:00,5307E-5,5C000000,-0724,0938,11095,027.7,045.3,0.393,736.3,01.18,0.508
2013-08-25 01:49:00,8334E-5,5C000000,-0724,0938,11026,027.7,045.3,0.393,736.3,01.18,0.508
2013-08-25 01:50:00,2528E-4,5C000000,-0724,0938,11030,027.7,045.3,0.393,736.4,01.18,0.508
2013-08-25 01:51:00,1431E-4,5C000000,-0724,0940,11128,027.7,045.3,0.392,736.4,01.18,0.508
2013-08-25 01:52:00,1670E-4,5C000000,-0724,0941,11211,027.7,045.4,0.393,736.4,01.18,0.508
2013-08-25 01:53:00,8754E-5,5C000000,-0724,0939,11047,027.7,045.3,0.393,736.4,01.18,0.508
2013-08-25 01:54:00,1841E-4,5C000000,-0724,0940,11026,027.8,045.4,0.392,736.4,01.18,0.508
2013-08-25 01:55:00,1491E-4,5C000000,-0724,0938,11200,027.8,045.3,0.392,736.3,01.18,0.508
2013-08-25 01:56:00,1473E-4,5C000000,-0724,0938,10999,027.8,045.3,0.392,736.3,01.18,0.508
2013-08-25 01:57:00,1323E-4,5C000000,-0724,0938,11046,027.8,045.4,0.393,736.4,01.18,0.508
2013-08-25 01:58:00,1773E-4,5C000000,-0724,0938,11152,027.8,045.3,0.392,736.4,01.18,0.508
2013-08-25 01:59:00,2113E-4,5C000000,-0724,0939,11057,027.8,045.3,0.392,736.4,01.18,0.508
2013-08-25 02:00:00,1562E-4,5C000000,-0724,0940,11164,027.8,045.3,0.393,736.4,01.18,0.508
2013-08-25 02:01:00,2103E-4,5C000000,-0724,0940,11155,027.8,045.3,0.393,736.4,01.18,0.508
2013-08-25 02:02:00,2014E-4,5C000000,-0724,0940,11177,027.9,045.3,0.392,736.3,01.18,0.508
2013-08-25 02:03:00,1607E-4,5C000000,-0724,0939,11239,027.9,045.4,0.392,736.3,01.18,0.508
2013-08-25 02:04:00,1595E-4,5C000000,-0724,0940,11033,028.0,045.4,0.393,736.3,01.18,0.508
2013-08-25 02:05:00,1636E-4,5C000000,-0724,0939,11276,028.0,045.4,0.392,736.3,01.18,0.508
2013-08-25 02:06:00,1769E-4,5C000000,-0724,0940,11111,028.0,045.3,0.392,736.3,01.18,0.508
2013-08-25 02:07:00,1727E-4,5C000000,-0724,0940,11229,028.1,045.4,0.392,736.2,01.18,0.508
2013-08-25 02:08:00,2718E-4,5C000000,-0724,0939,10969,028.1,045.4,0.392,736.3,01.18,0.508
2013-08-25 02:09:00,1579E-4,5C000000,-0724,0940,11053,028.2,045.3,0.392,736.3,01.18,0.508
2013-08-25 02:10:00,1415E-4,5C000000,-0724,0940,11146,028.2,045.4,0.392,736.3,01.18,0.508
2013-08-25 02:11:00,2064E-4,5C000000,-0724,0941,11121,028.2,045.4,0.392,736.3,01.18,0.508
2013-08-25 02:12:00,1591E-4,5C000000,-0724,0940,10964,028.3,045.4,0.391,736.3,01.18,0.508
2013-08-25 02:13:00,1902E-4,5C000000,-0724,0940,11294,028.3,045.4,0.392,736.3,01.18,0.508
2013-08-25 02:14:00,1801E-4,5C000000,-0724,0940,11200,028.3,045.4,0.391,736.3,01.18,0.508
2013-08-25 02:15:00,2347E-4,5C000000,-0724,0940,11221,028.4,045.4,0.392,736.3,01.18,0.508
2013-08-25 02:16:00,2059E-4,5C000000,-0724,0941,11070,028.4,045.4,0.391,736.3,01.18,0.508
2013-08-25 02:17:00,8882E-5,5C000000,-0724,0940,11337,028.4,045.4,0.391,736.4,01.18,0.508
2013-08-25 02:18:00,2244E-4,5C000000,-0724,0940,11041,028.5,045.4,0.391,736.3,01.18,0.508
2013-08-25 02:19:00,2007E-4,5C000000,-0724,0941,10888,028.5,045.4,0.391,736.3,01.18,0.508
2013-08-25 02:20:00,1475E-4,5C000000,-0724,0940,11142,028.5,045.4,0.390,736.3,01.18,0.508
2013-08-25 02:21:00,1151E-4,5C000000,-0724,0939,11116,028.6,045.4,0.391,736.4,01.18,0.508
2013-08-25 02:22:00,1269E-4,5C000000,-0724,0940,11169,028.6,045.4,0.390,736.3,01.18,0.508
2013-08-25 02:23:00,8615E-5,5C000000,-0724,0939,11003,028.5,045.4,0.391,736.3,01.18,0.508
2013-08-25 02:24:00,1602E-4,5C000000,-0724,0941,11035,028.6,045.4,0.390,736.4,01.18,0.508
2013-08-25 02:25:00,1908E-4,5C000000,-0724,0941,11052,028.6,045.4,0.390,736.4,01.18,0.508
2013-08-25 02:26:00,1907E-4,5C000000,-0724,0939,10952,028.2,045.4,0.390,736.3,01.18,0.508
2013-08-25 02:27:00,2496E-4,5C000000,-0724,0938,11076,027.9,045.3,0.390,736.4,01.18,0.508
2013-08-25 02:28:00,1416E-4,5C000000,-0724,0938,11165,027.8,045.3,0.391,736.4,01.18,0.508
2013-08-25 02:29:00,1513E-4,5C000000,-0724,0936,11172,027.5,045.3,0.391,736.4,01.18,0.508
2013-08-25 02:30:00,1371E-4,5C000000,-0724,0937,11208,027.4,045.3,0.392,736.5,01.18,0.508
2013-08-25 02:31:00,1050E-4,5C000000,-0724,0937,11189,027.2,045.3,0.392,736.5,01.18,0.508
2013-08-25 02:32:00,1365E-4,5C000000,-0724,0939,11222,027.1,045.3,0.392,736.4,01.18,0.508
2013-08-25 02:33:00,1470E-4,5C000000,-0724,0937,11145,026.9,045.3,0.392,736.5,01.18,0.508
2013-08-25 02:34:00,8360E-5,5C000000,-0724,0937,11116,026.7,045.3,0.392,736.5,01.18,0.508
2013-08-25 02:35:00,1915E-4,5C000000,-0724,0937,11074,026.7,045.3,0.393,736.5,01.18,0.508
2013-08-25 02:36:00,1822E-4,5C000000,-0724,0937,11105,026.6,045.3,0.393,736.5,01.18,0.508
2013-08-25 02:37:00,1749E-4,5C000000,-0724,0937,11052,026.5,045.3,0.394,736.5,01.18,0.508
2013-08-25 02:38:00,1196E-4,5C000000,-0724,0935,11235,026.4,045.3,0.394,736.4,01.18,0.508
2013-08-25 02:39:00,1212E-4,5C000000,-0724,0935,11215,026.3,045.3,0.394,736.5,01.18,0.508
2013-08-25 02:40:00,1009E-4,5C000000,-0724,0935,11254,026.2,045.3,0.394,736.5,01.18,0.508
2013-08-25 02:41:00,5892E-5,5C000000,-0724,0935,11273,026.2,045.3,0.394,736.5,01.18,0.508
2013-08-25 02:42:00,1038E-4,5C000000,-0724,0935,11091,026.1,045.3,0.394,736.5,01.18,0.508
2013-08-25 02:43:00,2216E-4,5C000000,-0724,0935,11075,026.1,045.3,0.395,736.5,01.18,0.508
2013-08-25 02:44:00,1246E-4,5C000000,-0724,0934,11187,026.0,045.3,0.395,736.4,01.18,0.508
2013-08-25 02:45:00,1878E-4,5C000000,-0724,0935,11235,025.9,045.3,0.395,736.5,01.18,0.508
2013-08-25 02:46:00,1772E-4,5C000000,-0724,0935,11116,025.8,045.3,0.395,736.5,01.18,0.508
2013-08-25 02:47:00,1237E-4,5C000000,-0724,0935,11169,026.0,045.3,0.395,736.5,01.18,0.508
2013-08-25 02:48:00,2224E-4,5C000000,-0724,0936,11153,026.3,045.3,0.395,736.5,01.18,0.508
2013-08-25 02:49:00,6513E-5,5C000000,-0724,0937,11214,026.4,045.3,0.395,736.4,01.18,0.508
2013-08-25 02:50:00,2500E-4,5C000000,-0724,0936,11171,026.6,045.3,0.394,736.4,01.18,0.508
2013-08-25 02:51:00,1656E-4,5C000000,-0724,0937,11186,026.8,045.3,0.394,736.4,01.18,0.508
2013-08-25 02:52:00,1849E-4,5C000000,-0724,0936,11107,026.9,045.3,0.394,736.3,01.18,0.508
2013-08-25 02:53:00,2355E-4,5C000000,-0724,0935,11293,027.0,045.3,0.394,736.3,01.18,0.508
2013-08-25 02:54:00,6665E-5,5C000000,-0724,0938,11113,027.1,045.3,0.393,736.3,01.18,0.508
2013-08-25 02:55:00,1295E-4,5C000000,-0724,0937,11147,027.2,045.3,0.394,736.3,01.18,0.508
2013-08-25 02:56:00,1798E-4,5C000000,-0724,0937,11147,027.3,045.4,0.393,736.3,01.18,0.508
2013-08-25 02:57:00,2447E-4,5C000000,-0724,0938,11157,027.3,045.3,0.393,736.2,01.18,0.508
2013-08-25 02:58:00,2182E-4,5C000000,-0724,0938,11170,027.4,045.3,0.392,736.3,01.18,0.508
2013-08-25 02:59:00,1354E-4,5C000000,-0724,0939,11155,027.5,045.3,0.393,736.2,01.18,0.508
2013-08-25 03:00:00,1558E-4,5C000000,-0724,0939,11064,027.6,045.3,0.392,736.2,01.18,0.508
2013-08-25 03:01:00,1779E-4,5C000000,-0724,0939,11222,027.7,045.3,0.392,736.3,01.18,0.508
2013-08-25 03:02:00,1204E-4,5C000000,-0724,0938,11260,027.7,045.4,0.392,736.3,01.18,0.508
2013-08-25 03:03:00,2120E-4,5C000000,-0724,0938,11100,027.9,045.3,0.392,736.3,01.18,0.508
2013-08-25 03:04:00,2009E-4,5C000000,-0724,0940,11082,027.9,045.3,0.392,736.3,01.18,0.508
2013-08-25 03:05:00,1040E-4,5C000000,-0724,0939,11134,028.0,045.4,0.391,736.2,01.18,0.508
2013-08-25 03:06:00,1958E-4,5C000000,-0724,0940,11171,028.1,045.4,0.391,736.2,01.18,0.508
2013-08-25 03:07:00,1417E-4,5C000000,-0724,0939,11140,028.1,045.3,0.392,736.2,01.18,0.508
2013-08-25 03:08:00,1073E-4,5C000000,-0724,0941,11285,028.2,045.3,0.391,736.2,01.18,0.508
2013-08-25 03:09:00,1969E-4,5C000000,-0724,0941,11174,028.3,045.3,0.391,736.2,01.18,0.508
2013-08-25 03:10:00,9441E-5,5C000000,-0724,0940,10961,028.3,045.4,0.391,736.3,01.18,0.508
2013-08-25 03:11:00,1669E-4,5C000000,-0724,0941,11039,028.3,045.4,0.391,736.2,01.18,0.508
2013-08-25 03:12:00,1160E-4,5C000000,-0724,0941,11228,028.4,045.4,0.390,736.3,01.18,0.508
2013-08-25 03:13:00,4125E-5,5C000000,-0724,0940,11112,028.4,045.4,0.391,736.2,01.18,0.508
2013-08-25 03:14:00,1683E-4,5C000000,-0724,0940,11206,028.5,045.4,0.391,736.2,01.18,0.508
2013-08-25 03:15:00,1092E-4,5C000000,-0724,0940,11133,028.5,045.4,0.390,736.2,01.18,0.508
2013-08-25 03:16:00,1105E-4,5C000000,-0724,0939,11264,028.5,045.4,0.390,736.2,01.18,0.508
2013-08-25 03:17:00,1724E-4,5C000000,-0724,0939,10961,028.5,045.4,0.390,736.2,01.18,0.508
2013-08-25 03:18:00,1712E-4,5C000000,-0724,0940,11142,028.6,045.4,0.390,736.2,01.18,0.508
2013-08-25 03:19:00,1546E-4,5C000000,-0724,0941,11150,028.6,045.4,0.390,736.2,01.18,0.508
2013-08-25 03:20:00,1544E-4,5C000000,-0724,0941,11029,028.6,045.4,0.390,736.2,01.18,0.508
2013-08-25 03:21:00,1197E-4,5C000000,-0724,0941,11109,028.6,045.4,0.390,736.2,01.18,0.508
2013-08-25 03:22:00,1579E-4,5C000000,-0724,0940,11211,028.6,045.4,0.390,736.2,01.18,0.508
2013-08-25 03:23:00,2571E-4,5C000000,-0724,0942,11176,028.6,045.4,0.390,736.2,01.18,0.508
2013-08-25 03:24:00,1652E-4,5C000000,-0724,0941,11102,028.7,045.4,0.389,736.1,01.18,0.508
2013-08-25 03:25:00,3252E-5,5C000000,-0724,0941,10968,028.7,045.4,0.390,736.2,01.18,0.508
2013-08-25 03:26:00,1460E-4,5C000000,-0724,0940,11231,028.7,045.4,0.390,736.2,01.18,0.508
2013-08-25 03:27:00,2311E-4,5C000000,-0724,0941,11167,028.7,045.4,0.390,736.1,01.18,0.508
2013-08-25 03:28:00,2016E-4,5C000000,-0724,0940,11085,028.7,045.4,0.390,736.2,01.18,0.508
2013-08-25 03:29:00,2081E-4,5C000000,-0724,0940,11091,028.7,045.4,0.389,736.2,01.18,0.508
2013-08-25 03:30:00,2059E-4,5C000000,-0724,0941,11148,028.7,045.4,0.389,736.2,01.18,0.508
2013-08-25 03:31:00,1867E-4,5C000000,-0724,0940,11214,028.7,045.4,0.389,736.2,01.18,0.508
2013-08-25 03:32:00,1946E-4,5C000000,-0724,0940,10989,028.7,045.4,0.390,736.2,01.18,0.508
2013-08-25 03:33:00,2234E-4,5C000000,-0724,0940,11167,028.7,045.4,0.390,736.2,01.18,0.508
2013-08-25 03:34:00,1391E-4,5C000000,-0724,0941,11118,028.8,045.4,0.390,736.1,01.18,0.508
2013-08-25 03:35:00,1945E-4,5C000000,-0724,0941,11154,028.8,045.4,0.389,736.2,01.18,0.508
2013-08-25 03:36:00,7798E-5,5C000000,-0724,0941,11165,028.8,045.4,0.389,736.1,01.18,0.508
2013-08-25 03:37:00,1098E-4,5C000000,-0724,0940,11163,028.8,045.4,0.389,736.1,01.18,0.508
2013-08-25 03:38:00,2052E-4,5C000000,-0724,0941,10986,028.8,045.4,0.389,736.1,01.18,0.508
2013-08-25 03:39:00,2500E-4,5C000000,-0724,0940,11062,028.8,045.4,0.389,736.1,01.18,0.508
2013-08-25 03:40:00,1420E-4,5C000000,-0724,0940,10940,028.8,045.4,0.389,736.1,01.18,0.508
2013-08-25 03:41:00,1472E-4,5C000000,-0724,0940,11138,028.8,045.3,0.390,736.1,01.18,0.508
2013-08-25 03:42:00,1434E-4,5C000000,-0724,0941,11055,028.8,045.4,0.390,736.1,01.18,0.508
2013-08-25 03:43:00,1687E-4,5C000000,-0724,0941,11153,028.8,045.4,0.390,736.1,01.18,0.508
2013-08-25 03:44:00,1848E-4,5C000000,-0724,0940,11154,028.8,045.4,0.389,736.1,01.18,0.508
2013-08-25 03:45:00,1173E-4,5C000000,-0724,0941,11214,028.8,045.4,0.389,736.1,01.18,0.508
2013-08-25 03:46:00,9874E-5,5C000000,-0724,0941,11005,028.8,045.4,0.389,736.1,01.18,0.508
2013-08-25 03:47:00,1240E-4,5C000000,-0724,0941,11092,028.8,045.4,0.389,736.1,01.18,0.508
2013-08-25 03:48:00,1863E-4,5C000000,-0724,0941,11186,028.8,045.4,0.389,736.2,01.18,0.508
2013-08-25 03:49:00,1564E-4,5C000000,-0724,0941,10919,028.8,045.4,0.389,736.2,01.18,0.508
2013-08-25 03:50:00,2036E-4,5C000000,-0724,0941,11178,028.8,045.4,0.390,736.2,01.18,0.508
2013-08-25 03:51:00,2086E-4,5C000000,-0724,0941,11110,028.8,045.4,0.390,736.2,01.18,0.508
2013-08-25 03:52:00,1294E-4,5C000000,-0724,0942,11090,028.8,045.4,0.390,736.2,01.18,0.508
2013-08-25 03:53:00,1009E-4,5C000000,-0724,0942,11230,028.8,045.4,0.389,736.1,01.18,0.508
2013-08-25 03:54:00,1892E-4,5C000000,-0724,0942,11267,028.8,045.4,0.389,736.1,01.18,0.508
2013-08-25 03:55:00,7776E-5,5C000000,-0724,0940,11026,028.8,045.4,0.389,736.1,01.18,0.508
2013-08-25 03:56:00,1692E-4,5C000000,-0724,0942,11249,028.8,045.4,0.389,736.1,01.18,0.508
2013-08-25 03:57:00,1482E-4,5C000000,-0724,0940,11203,028.8,045.4,0.389,736.1,01.18,0.508
2013-08-25 03:58:00,2226E-4,5C000000,-0724,0941,11065,028.8,045.4,0.389,736.2,01.18,0.508
2013-08-25 03:59:00,1192E-4,5C000000,-0724,0941,11050,028.8,045.4,0.389,736.1,01.18,0.508
2013-08-25 04:00:00,2320E-4,5C000000,-0724,0941,11142,028.8,045.4,0.390,736.1,01.18,0.508
2013-08-25 04:01:00,1850E-4,5C000000,-0724,0941,11153,028.8,045.4,0.390,736.1,01.18,0.508
2013-08-25 04:02:00,7186E-5,5C000000,-0724,0941,11183,028.8,045.4,0.390,736.1,01.18,0.508
2013-08-25 04:03:00,1573E-4,5C000000,-0724,0941,11043,028.8,045.4,0.390,736.1,01.18,0.508
2013-08-25 04:04:00,1689E-4,5C000000,-0724,0941,11047,028.8,045.4,0.389,736.1,01.18,0.508
2013-08-25 04:05:00,5715E-5,5C000000,-0724,0941,10951,028.8,045.4,0.389,736.1,01.18,0.508
2013-08-25 04:06:00,2141E-4,5C000000,-0724,0941,11100,028.8,045.4,0.389,736.1,01.18,0.508
2013-08-25 04:07:00,2082E-4,5C000000,-0724,0941,10914,028.8,045.4,0.389,736.2,01.18,0.508
2013-08-25 04:08:00,2396E-4,5C000000,-0724,0941,11267,028.8,045.4,0.389,736.2,01.18,0.508
2013-08-25 04:09:00,2005E-4,5C000000,-0724,0942,11072,028.8,045.4,0.389,736.1,01.18,0.508
2013-08-25 04:10:00,2061E-4,5C000000,-0724,0941,11047,028.8,045.4,0.389,736.1,01.18,0.508
2013-08-25 04:11:00,1290E-4,5C000000,-0724,0942,11135,028.8,045.4,0.390,736.2,01.18,0.508
2013-08-25 04:12:00,6201E-5,5C000000,-0724,0941,11053,028.8,045.4,0.390,736.2,01.18,0.508
2013-08-25 04:13:00,1634E-4,5C000000,-0724,0940,11143,028.8,045.4,0.390,736.2,01.18,0.508
2013-08-25 04:14:00,1511E-4,5C000000,-0724,0941,11170,028.8,045.4,0.390,736.2,01.18,0.508
2013-08-25 04:15:00,1560E-4,5C000000,-0724,0941,11202,028.8,045.4,0.390,736.1,01.18,0.508
2013-08-25 04:16:00,1488E-4,5C000000,-0724,0942,11083,028.8,045.4,0.389,736.1,01.18,0.508
2013-08-25 04:17:00,1076E-4,5C000000,-0724,0942,11124,028.8,045.4,0.389,736.2,01.18,0.508
2013-08-25 04:18:00,1708E-4,5C000000,-0724,0943,11216,028.8,045.4,0.389,736.1,01.18,0.508
2013-08-25 04:19:00,1172E-4,5C000000,-0724,0943,11170,028.8,045.4,0.389,736.1,01.18,0.508
2013-08-25 04:20:00,1076E-4,5C000000,-0724,0942,11252,028.8,045.4,0.389,736.2,01.18,0.508